Location: Juzet
(42.9779°N, 0.7597°E)
Time: 01:40:06
(UTC+00:00)

COSMOS 2406 - Pass Details

Date: 14 July 2020
Orbit: 844 x 863 km, 71.0° (Epoch: 04 August)

Event Time Altitude Azimuth Distance (km) Brightness Sun altitude
Exits shadow 00:49:37 33° 126° (SE) 1,410 4.1 -24.5°
Maximum altitude 00:50:36 35° 105° (ESE) 1,352 4.2 -24.5°
Drops below altitude 10° 00:55:47 10° 41° (NE) 2,508 6.5 -24.3°
Sets 00:58:26 0° 33° (NNE) 3,448 7.6 -24.1°
